| time (UTC) | temp F | wind direction | speed knots | gust knots | rain 1hr in | rain 24hr in | rain mn in | humidity % | barometer mb |
| 20260903195027 | 78 | 0 | 0.0 | 0.0 | 0.00 | 0.11 | 0.11 | 87 | 1012.3 |
| 20260903194547 | 78 | 0 | 0.0 | 0.0 | 0.00 | 0.11 | 0.11 | 88 | 1012.3 |
| 20260903194027 | 78 | 0 | 0.0 | 0.0 | 0.00 | 0.11 | 0.11 | 89 | 1012.5 |
| 20260903193528 | 77 | 0 | 0.0 | 0.0 | 0.00 | 0.11 | 0.11 | 88 | 1012.5 |
| 20260903193047 | 77 | 0 | 0.0 | 0.9 | 0.00 | 0.11 | 0.11 | 87 | 1012.7 |
| 20260903192530 | 78 | 0 | 0.0 | 0.9 | 0.00 | 0.11 | 0.11 | 86 | 1012.5 |
| 20260903192029 | 78 | 0 | 0.0 | 0.9 | 0.00 | 0.11 | 0.11 | 85 | 1012.8 |
| 20260903191552 | 79 | 24 | 0.9 | 1.7 | 0.00 | 0.11 | 0.11 | 83 | 1012.7 |
| 20260903191028 | 80 | 0 | 0.9 | 2.6 | 0.00 | 0.11 | 0.11 | 81 | 1012.8 |
| 20260903190527 | 80 | 165 | 0.0 | 2.6 | 0.00 | 0.11 | 0.11 | 84 | 1012.8 |
| 20260903190052 | 80 | 1 | 0.0 | 2.6 | 0.00 | 0.11 | 0.11 | 84 | 1012.8 |
| 20260903185530 | 80 | 0 | 0.0 | 0.0 | 0.00 | 0.11 | 0.11 | 86 | 1012.8 |
| 20260903185032 | 79 | 0 | 0.0 | 0.9 | 0.00 | 0.11 | 0.11 | 85 | 1012.8 |
| 20260903184555 | 78 | 0 | 0.0 | 0.9 | 0.00 | 0.11 | 0.11 | 85 | 1012.9 |
| 20260903184028 | 78 | 0 | 0.0 | 0.9 | 0.00 | 0.11 | 0.11 | 84 | 1013.0 |
| 20260903183527 | 78 | 0 | 0.0 | 0.9 | 0.00 | 0.11 | 0.11 | 84 | 1013.1 |
| 20260903183047 | 78 | 196 | 0.0 | 0.9 | 0.00 | 0.11 | 0.11 | 85 | 1013.1 |
| 20260903182526 | 78 | 0 | 0.0 | 3.5 | 0.00 | 0.11 | 0.11 | 85 | 1013.2 |
| 20260903182028 | 78 | 115 | 0.9 | 3.5 | 0.00 | 0.11 | 0.11 | 84 | 1013.3 |
| 20260903181551 | 78 | 206 | 0.9 | 3.5 | 0.00 | 0.11 | 0.11 | 83 | 1013.4 |
| 20260903181028 | 78 | 0 | 0.0 | 3.5 | 0.00 | 0.11 | 0.11 | 85 | 1013.3 |
| 20260903180529 | 77 | 266 | 0.9 | 3.5 | 0.00 | 0.11 | 0.11 | 85 | 1013.4 |
| 20260903180112 | 76 | 222 | 0.0 | 3.5 | 0.00 | 0.11 | 0.11 | 88 | 1013.4 |
| 20260903175527 | 75 | 115 | 0.0 | 3.5 | 0.00 | 0.11 | 0.11 | 89 | 1013.5 |
| 20260903175029 | 74 | 255 | 1.7 | 3.5 | 0.00 | 0.11 | 0.11 | 89 | 1013.6 |
| 20260903174547 | 74 | 0 | 0.0 | 0.0 | 0.00 | 0.11 | 0.11 | 91 | 1013.6 |
| 20260903174026 | 73 | 0 | 0.0 | 0.0 | 0.00 | 0.11 | 0.11 | 91 | 1013.7 |
| 20260903173528 | 73 | 0 | 0.0 | 0.9 | 0.00 | 0.11 | 0.11 | 90 | 1013.9 |
| 20260903173046 | 73 | 0 | 0.0 | 0.9 | 0.00 | 0.11 | 0.11 | 90 | 1013.8 |
| 20260903172529 | 73 | 0 | 0.0 | 0.9 | 0.00 | 0.11 | 0.11 | 88 | 1014.0 |
| 20260903172028 | 73 | 0 | 0.0 | 0.9 | 0.00 | 0.11 | 0.11 | 88 | 1013.9 |
| 20260903171554 | 74 | 0 | 0.0 | 1.7 | 0.00 | 0.11 | 0.11 | 89 | 1013.9 |
| 20260903171031 | 73 | 0 | 0.0 | 1.7 | 0.00 | 0.11 | 0.11 | 91 | 1013.8 |
| 20260903170530 | 73 | 294 | 0.0 | 4.3 | 0.00 | 0.11 | 0.11 | 90 | 1013.6 |
| 20260903170052 | 73 | 0 | 0.0 | 4.3 | 0.00 | 0.11 | 0.11 | 89 | 1013.9 |
| 20260903165527 | 73 | 238 | 0.0 | 1.7 | 0.00 | 0.11 | 0.11 | 89 | 1013.9 |
| 20260903165029 | 73 | 0 | 0.0 | 1.7 | 0.00 | 0.11 | 0.11 | 91 | 1014.0 |
| 20260903164559 | 72 | 63 | 0.0 | 1.7 | 0.00 | 0.11 | 0.11 | 90 | 1014.0 |
| 20260903164032 | 72 | 196 | 0.0 | 1.7 | 0.00 | 0.11 | 0.11 | 90 | 1014.2 |
| 20260903163529 | 72 | 0 | 0.0 | 0.9 | 0.00 | 0.11 | 0.11 | 91 | 1014.3 |
| 20260903163046 | 71 | 0 | 0.0 | 0.9 | 0.00 | 0.11 | 0.11 | 91 | 1014.4 |
| 20260903162527 | 71 | 126 | 0.0 | 1.7 | 0.00 | 0.11 | 0.11 | 91 | 1014.5 |
| 20260903162027 | 71 | 285 | 0.0 | 1.7 | 0.00 | 0.11 | 0.11 | 92 | 1014.3 |
| 20260903161554 | 70 | 0 | 0.0 | 1.7 | 0.00 | 0.11 | 0.11 | 91 | 1014.4 |
| 20260903161030 | 70 | 251 | 0.0 | 0.9 | 0.00 | 0.11 | 0.11 | 92 | 1014.3 |
| 20260903160529 | 70 | 129 | 0.0 | 0.9 | 0.00 | 0.11 | 0.11 | 93 | 1014.5 |
| 20260903160054 | 69 | 0 | 0.0 | 0.9 | 0.00 | 0.11 | 0.11 | 93 | 1014.3 |
| 20260903155535 | 69 | 0 | 0.0 | 0.9 | 0.00 | 0.11 | 0.11 | 93 | 1014.4 |
| 20260903155030 | 69 | 0 | 0.0 | 0.9 | 0.00 | 0.11 | 0.11 | 93 | 1014.6 |
| 20260903154545 | 69 | 229 | 0.0 | 1.7 | 0.00 | 0.11 | 0.11 | 95 | 1014.5 |
| 20260903154029 | 68 | 0 | 0.0 | 1.7 | 0.00 | 0.11 | 0.11 | 94 | 1014.4 |
| 20260903153528 | 68 | 106 | 0.0 | 0.9 | 0.00 | 0.11 | 0.11 | 95 | 1014.7 |
| 20260903153048 | 68 | 0 | 0.0 | 0.9 | 0.00 | 0.11 | 0.11 | 96 | 1014.5 |
| 20260903152530 | 67 | 0 | 0.0 | 0.9 | 0.00 | 0.11 | 0.11 | 95 | 1014.6 |
| 20260903152028 | 67 | 356 | 0.0 | 0.9 | 0.00 | 0.11 | 0.11 | 96 | 1014.8 |
| 20260903151554 | 67 | 0 | 0.0 | 0.0 | 0.00 | 0.11 | 0.11 | 97 | 1014.6 |
| 20260903151027 | 66 | 0 | 0.0 | 0.9 | 0.00 | 0.11 | 0.11 | 97 | 1014.7 |
| 20260903150529 | 66 | 347 | 0.0 | 0.9 | 0.00 | 0.11 | 0.11 | 97 | 1014.6 |
| 20260903150059 | 66 | 0 | 0.0 | 0.9 | 0.00 | 0.11 | 0.11 | 97 | 1014.6 |
| 20260903145529 | 65 | 32 | 0.0 | 0.9 | 0.00 | 0.11 | 0.11 | 97 | 1014.6 |
| 20260903145028 | 65 | 31 | 0.0 | 0.9 | 0.00 | 0.11 | 0.11 | 97 | 1014.6 |
| 20260903144548 | 65 | 0 | 0.0 | 0.9 | 0.00 | 0.11 | 0.11 | 96 | 1014.8 |
| 20260903144029 | 65 | 0 | 0.0 | 0.9 | 0.00 | 0.11 | 0.11 | 97 | 1014.8 |
| 20260903143528 | 65 | 0 | 0.0 | 1.7 | 0.00 | 0.11 | 0.11 | 97 | 1014.8 |
| 20260903143042 | 65 | 0 | 0.0 | 1.7 | 0.00 | 0.11 | 0.11 | 97 | 1014.8 |
| 20260903142529 | 65 | 0 | 0.0 | 0.9 | 0.00 | 0.11 | 0.11 | 97 | 1014.8 |
| 20260903142028 | 65 | 0 | 0.0 | 0.9 | 0.00 | 0.11 | 0.11 | 97 | 1014.9 |
| 20260903141554 | 64 | 0 | 0.0 | 0.9 | 0.00 | 0.11 | 0.11 | 97 | 1014.8 |
| 20260903141031 | 64 | 0 | 0.0 | 0.0 | 0.00 | 0.11 | 0.11 | 98 | 1015.0 |
| 20260903140531 | 64 | 0 | 0.0 | 0.0 | 0.00 | 0.11 | 0.11 | 97 | 1015.0 |
| 20260903140053 | 64 | 0 | 0.0 | 0.0 | 0.00 | 0.11 | 0.11 | 97 | 1015.0 |
| 20260903135527 | 64 | 0 | 0.0 | 0.0 | 0.00 | 0.11 | 0.11 | 97 | 1014.8 |
| 20260903135030 | 64 | 0 | 0.0 | 0.0 | 0.00 | 0.11 | 0.11 | 97 | 1015.0 |
| 20260903134546 | 64 | 0 | 0.0 | 0.0 | 0.00 | 0.11 | 0.11 | 97 | 1014.8 |
| 20260903134029 | 64 | 0 | 0.0 | 0.0 | 0.00 | 0.11 | 0.11 | 98 | 1014.9 |
| 20260903133530 | 63 | 0 | 0.0 | 0.0 | 0.00 | 0.11 | 0.11 | 98 | 1014.9 |
| 20260903133046 | 63 | 0 | 0.0 | 0.0 | 0.00 | 0.11 | 0.11 | 98 | 1015.1 |
| 20260903132528 | 63 | 0 | 0.0 | 0.0 | 0.00 | 0.11 | 0.11 | 98 | 1015.1 |
| 20260903132027 | 63 | 0 | 0.0 | 0.0 | 0.00 | 0.11 | 0.11 | 98 | 1015.2 |
| 20260903131553 | 63 | 0 | 0.0 | 0.0 | 0.00 | 0.11 | 0.11 | 98 | 1015.4 |
| 20260903131029 | 63 | 0 | 0.0 | 0.0 | 0.00 | 0.11 | 0.11 | 98 | 1015.4 |
| 20260903130529 | 63 | 0 | 0.0 | 0.0 | 0.00 | 0.11 | 0.11 | 98 | 1015.3 |
| 20260903130112 | 63 | 0 | 0.0 | 0.0 | 0.00 | 0.11 | 0.11 | 98 | 1015.4 |
| 20260903125531 | 62 | 0 | 0.0 | 0.0 | 0.00 | 0.11 | 0.11 | 98 | 1015.5 |
| 20260903125029 | 62 | 0 | 0.0 | 0.0 | 0.00 | 0.11 | 0.11 | 98 | 1015.7 |
| 20260903124547 | 62 | 0 | 0.0 | 0.0 | 0.00 | 0.11 | 0.11 | 98 | 1015.5 |
| 20260903124027 | 62 | 0 | 0.0 | 0.0 | 0.00 | 0.11 | 0.11 | 98 | 1015.6 |
| 20260903123530 | 62 | 0 | 0.0 | 0.0 | 0.00 | 0.11 | 0.11 | 98 | 1015.7 |
| 20260903123052 | 62 | 0 | 0.0 | 0.0 | 0.00 | 0.11 | 0.11 | 98 | 1015.7 |
| 20260903122527 | 62 | 0 | 0.0 | 0.0 | 0.00 | 0.11 | 0.11 | 98 | 1015.7 |
| 20260903122028 | 62 | 0 | 0.0 | 0.0 | 0.00 | 0.11 | 0.11 | 98 | 1015.7 |
| 20260903121553 | 62 | 0 | 0.0 | 0.0 | 0.00 | 0.11 | 0.11 | 98 | 1015.9 |
| 20260903121028 | 62 | 0 | 0.0 | 0.0 | 0.00 | 0.11 | 0.11 | 98 | 1015.9 |
| 20260903120532 | 62 | 0 | 0.0 | 0.0 | 0.00 | 0.11 | 0.11 | 98 | 1015.8 |
| 20260903120048 | 62 | 0 | 0.0 | 0.0 | 0.00 | 0.11 | 0.11 | 98 | 1016.0 |
| 20260903115529 | 62 | 0 | 0.0 | 0.0 | 0.00 | 0.11 | 0.11 | 98 | 1016.0 |
| 20260903115029 | 62 | 0 | 0.0 | 0.0 | 0.00 | 0.11 | 0.11 | 98 | 1016.1 |
| 20260903114551 | 62 | 0 | 0.0 | 0.0 | 0.00 | 0.11 | 0.11 | 98 | 1016.1 |
| 20260903114029 | 62 | 0 | 0.0 | 0.0 | 0.00 | 0.11 | 0.11 | 98 | 1016.1 |
| 20260903113530 | 62 | 0 | 0.0 | 0.0 | 0.00 | 0.11 | 0.11 | 98 | 1016.1 |
| 20260903113045 | 62 | 0 | 0.0 | 0.0 | 0.00 | 0.11 | 0.11 | 98 | 1015.9 |
| 20260903112528 | 62 | 0 | 0.0 | 0.0 | 0.00 | 0.11 | 0.11 | 98 | 1016.0 |
| 20260903112030 | 62 | 0 | 0.0 | 0.0 | 0.00 | 0.11 | 0.11 | 98 | 1016.1 |
| 20260903111603 | 62 | 0 | 0.0 | 0.0 | 0.00 | 0.11 | 0.11 | 98 | 1016.0 |
| 20260903111027 | 62 | 0 | 0.0 | 0.0 | 0.00 | 0.11 | 0.11 | 98 | 1016.1 |
| 20260903110531 | 62 | 0 | 0.0 | 0.0 | 0.00 | 0.11 | 0.11 | 98 | 1016.1 |
| 20260903110110 | 62 | 0 | 0.0 | 0.0 | 0.00 | 0.11 | 0.11 | 98 | 1016.2 |
| 20260903105529 | 61 | 0 | 0.0 | 0.0 | 0.00 | 0.11 | 0.11 | 98 | 1016.1 |
| 20260903105028 | 62 | 0 | 0.0 | 0.0 | 0.00 | 0.11 | 0.11 | 98 | 1016.0 |
| 20260903104549 | 62 | 0 | 0.0 | 0.0 | 0.00 | 0.11 | 0.11 | 98 | 1016.0 |
| 20260903104028 | 61 | 0 | 0.0 | 0.0 | 0.00 | 0.11 | 0.11 | 98 | 1015.9 |
| 20260903103532 | 61 | 0 | 0.0 | 0.0 | 0.00 | 0.11 | 0.11 | 98 | 1016.2 |
| 20260903103053 | 61 | 0 | 0.0 | 0.0 | 0.00 | 0.11 | 0.11 | 98 | 1015.9 |
| 20260903102528 | 61 | 0 | 0.0 | 0.0 | 0.00 | 0.11 | 0.11 | 98 | 1015.9 |
| 20260903102026 | 61 | 0 | 0.0 | 0.0 | 0.00 | 0.11 | 0.11 | 98 | 1016.1 |
| 20260903101559 | 61 | 0 | 0.0 | 0.0 | 0.00 | 0.11 | 0.11 | 98 | 1015.9 |
| 20260903101031 | 61 | 0 | 0.0 | 0.0 | 0.00 | 0.11 | 0.11 | 98 | 1015.7 |
| 20260903100530 | 61 | 0 | 0.0 | 0.0 | 0.00 | 0.11 | 0.11 | 98 | 1015.6 |
| 20260903100045 | 61 | 0 | 0.0 | 0.0 | 0.00 | 0.11 | 0.11 | 98 | 1015.8 |
| 20260903095532 | 61 | 0 | 0.0 | 0.0 | 0.00 | 0.11 | 0.11 | 98 | 1015.6 |
| 20260903095029 | 61 | 0 | 0.0 | 0.0 | 0.00 | 0.11 | 0.11 | 98 | 1015.7 |
| 20260903094553 | 61 | 0 | 0.0 | 0.0 | 0.00 | 0.11 | 0.11 | 98 | 1015.7 |
| 20260903094025 | 61 | 0 | 0.0 | 0.0 | 0.00 | 0.11 | 0.11 | 98 | 1015.9 |
| 20260903093604 | 61 | 0 | 0.0 | 0.0 | 0.00 | 0.11 | 0.11 | 98 | 1015.9 |
| 20260903093053 | 61 | 0 | 0.0 | 0.0 | 0.00 | 0.11 | 0.11 | 98 | 1015.9 |
| 20260903092533 | 61 | 0 | 0.0 | 0.0 | 0.00 | 0.11 | 0.11 | 98 | 1015.9 |
| 20260903092033 | 61 | 0 | 0.0 | 0.0 | 0.00 | 0.11 | 0.11 | 98 | 1015.8 |
| 20260903091549 | 61 | 0 | 0.0 | 0.0 | 0.00 | 0.11 | 0.11 | 98 | 1015.7 |
| 20260903091032 | 61 | 0 | 0.0 | 0.0 | 0.00 | 0.11 | 0.11 | 98 | 1015.8 |
| 20260903090531 | 61 | 0 | 0.0 | 0.0 | 0.00 | 0.11 | 0.11 | 98 | 1015.9 |
| 20260903090056 | 61 | 0 | 0.0 | 0.0 | 0.00 | 0.11 | 0.11 | 98 | 1016.1 |
| 20260903085531 | 61 | 0 | 0.0 | 0.0 | 0.00 | 0.11 | 0.11 | 98 | 1016.2 |
| 20260903085030 | 61 | 0 | 0.0 | 0.0 | 0.00 | 0.11 | 0.11 | 98 | 1016.2 |
| 20260903084553 | 61 | 0 | 0.0 | 0.0 | 0.00 | 0.11 | 0.11 | 98 | 1016.3 |
| 20260903084031 | 61 | 0 | 0.0 | 0.0 | 0.00 | 0.11 | 0.11 | 98 | 1016.3 |
| 20260903083531 | 61 | 0 | 0.0 | 0.0 | 0.00 | 0.11 | 0.11 | 98 | 1016.4 |
| 20260903083050 | 61 | 0 | 0.0 | 0.0 | 0.00 | 0.11 | 0.11 | 97 | 1016.4 |
| 20260903082531 | 61 | 0 | 0.0 | 0.0 | 0.00 | 0.11 | 0.11 | 97 | 1016.5 |
| 20260903082031 | 61 | 0 | 0.0 | 0.0 | 0.00 | 0.11 | 0.11 | 97 | 1016.4 |
| 20260903081554 | 61 | 0 | 0.0 | 0.0 | 0.00 | 0.11 | 0.11 | 97 | 1016.3 |
| 20260903081030 | 61 | 0 | 0.0 | 0.0 | 0.00 | 0.11 | 0.11 | 97 | 1016.4 |
| 20260903080530 | 61 | 0 | 0.0 | 0.0 | 0.00 | 0.11 | 0.11 | 97 | 1016.5 |
| 20260903080052 | 61 | 0 | 0.0 | 0.0 | 0.00 | 0.11 | 0.11 | 97 | 1016.4 |
| 20260903075531 | 61 | 0 | 0.0 | 0.0 | 0.00 | 0.11 | 0.11 | 97 | 1016.6 |
| 20260903075030 | 61 | 0 | 0.0 | 0.0 | 0.00 | 0.11 | 0.11 | 97 | 1016.6 |
| 20260903074601 | 61 | 0 | 0.0 | 0.0 | 0.00 | 0.11 | 0.11 | 97 | 1016.6 |
| 20260903074035 | 61 | 0 | 0.0 | 0.0 | 0.00 | 0.11 | 0.11 | 97 | 1016.7 |
| 20260903073530 | 61 | 0 | 0.0 | 0.0 | 0.01 | 0.11 | 0.11 | 97 | 1016.6 |
| 20260903073047 | 61 | 0 | 0.0 | 0.0 | 0.01 | 0.11 | 0.11 | 97 | 1016.7 |
| 20260903072530 | 61 | 0 | 0.0 | 0.0 | 0.01 | 0.11 | 0.11 | 97 | 1016.8 |
| 20260903072038 | 61 | 0 | 0.0 | 0.0 | 0.01 | 0.11 | 0.11 | 97 | 1016.7 |
| 20260903071554 | 61 | 0 | 0.0 | 0.0 | 0.01 | 0.11 | 0.11 | 97 | 1016.9 |
| 20260903071030 | 61 | 0 | 0.0 | 0.0 | 0.02 | 0.11 | 0.11 | 97 | 1016.8 |
| 20260903070530 | 61 | 0 | 0.0 | 0.0 | 0.02 | 0.11 | 0.11 | 96 | 1016.8 |
| 20260903070135 | 61 | 0 | 0.0 | 0.0 | 0.03 | 0.11 | 0.11 | 96 | 1017.0 |
| 20260903065528 | 61 | 0 | 0.0 | 0.0 | 0.04 | 0.11 | 0.11 | 96 | 1016.8 |
| 20260903065026 | 61 | 0 | 0.0 | 0.0 | 0.06 | 0.11 | 0.11 | 96 | 1016.5 |
| 20260903064547 | 61 | 0 | 0.0 | 0.0 | 0.08 | 0.11 | 0.11 | 96 | 1016.7 |
| 20260903064029 | 61 | 0 | 0.0 | 0.0 | 0.10 | 0.11 | 0.11 | 96 | 1016.2 |
| 20260903063532 | 61 | 0 | 0.0 | 0.0 | 0.09 | 0.10 | 0.10 | 96 | 1016.3 |
| 20260903063050 | 61 | 0 | 0.0 | 0.0 | 0.10 | 0.10 | 0.10 | 96 | 1016.3 |
| 20260903062527 | 61 | 0 | 0.0 | 0.0 | 0.10 | 0.10 | 0.10 | 95 | 1016.5 |
| 20260903062030 | 62 | 0 | 0.0 | 0.0 | 0.10 | 0.10 | 0.10 | 95 | 1016.7 |
| 20260903061554 | 62 | 0 | 0.0 | 0.0 | 0.10 | 0.10 | 0.10 | 95 | 1016.8 |
| 20260903061033 | 62 | 0 | 0.0 | 0.0 | 0.09 | 0.09 | 0.09 | 94 | 1017.3 |
| 20260903060528 | 62 | 0 | 0.0 | 0.0 | 0.09 | 0.09 | 0.09 | 94 | 1017.4 |
| 20260903060051 | 62 | 0 | 0.0 | 0.0 | 0.08 | 0.08 | 0.08 | 94 | 1017.5 |
| 20260903055527 | 62 | 0 | 0.0 | 0.0 | 0.07 | 0.07 | 0.07 | 94 | 1017.4 |
| 20260903055026 | 63 | 0 | 0.0 | 0.0 | 0.05 | 0.05 | 0.05 | 93 | 1017.5 |
| 20260903054553 | 63 | 0 | 0.0 | 0.0 | 0.03 | 0.03 | 0.03 | 93 | 1017.8 |
| 20260903054028 | 63 | 0 | 0.0 | 0.0 | 0.01 | 0.01 | 0.01 | 92 | 1018.1 |
| 20260903053528 | 63 | 0 | 0.0 | 0.0 | 0.01 | 0.01 | 0.01 | 92 | 1018.0 |
| 20260903053107 | 63 | 0 | 0.0 | 0.0 | 0.00 | 0.00 | 0.00 | 91 | 1018.2 |
| 20260903052529 | 63 | 0 | 0.0 | 0.0 | 0.00 | 0.00 | 0.00 | 91 | 1018.4 |
| 20260903052028 | 63 | 0 | 0.0 | 0.0 | 0.00 | 0.00 | 0.00 | 91 | 1018.4 |
| 20260903051552 | 64 | 0 | 0.0 | 0.0 | 0.00 | 0.00 | 0.00 | 90 | 1018.5 |
| 20260903051033 | 64 | 0 | 0.0 | 0.0 | 0.00 | 0.00 | 0.00 | 90 | 1018.5 |
| 20260903050532 | 64 | 0 | 0.0 | 0.0 | 0.00 | 0.00 | 0.00 | 90 | 1018.5 |
| 20260903050046 | 64 | 0 | 0.0 | 0.0 | 0.00 | 0.00 | 0.00 | 89 | 1018.7 |
| 20260903045527 | 64 | 0 | 0.0 | 0.0 | 0.00 | 0.00 | 0.00 | 89 | 1018.6 |
| 20260903045028 | 64 | 0 | 0.0 | 0.0 | 0.00 | 0.00 | 0.00 | 88 | 1018.6 |
| 20260903044556 | 64 | 0 | 0.0 | 0.0 | 0.00 | 0.00 | 0.00 | 88 | 1018.5 |
| 20260903044031 | 64 | 0 | 0.0 | 0.0 | 0.00 | 0.00 | 0.00 | 88 | 1018.4 |
| 20260903043529 | 64 | 0 | 0.0 | 0.0 | 0.00 | 0.00 | 0.00 | 88 | 1018.5 |
| 20260903043051 | 64 | 0 | 0.0 | 0.0 | 0.00 | 0.00 | 0.00 | 87 | 1018.6 |
| 20260903042531 | 65 | 0 | 0.0 | 0.0 | 0.00 | 0.00 | 0.00 | 87 | 1018.6 |
| 20260903042029 | 65 | 0 | 0.0 | 0.0 | 0.00 | 0.00 | 0.00 | 87 | 1018.4 |
| 20260903041548 | 65 | 0 | 0.0 | 0.0 | 0.00 | 0.00 | 0.00 | 87 | 1018.6 |
| 20260903041028 | 65 | 0 | 0.0 | 0.0 | 0.00 | 0.00 | 0.00 | 86 | 1018.8 |
| 20260903040530 | 65 | 0 | 0.0 | 0.0 | 0.00 | 0.00 | 0.00 | 86 | 1018.9 |
| 20260903040046 | 65 | 0 | 0.0 | 0.0 | 0.00 | 0.00 | 0.00 | 86 | 1018.8 |
| 20260903035527 | 65 | 0 | 0.0 | 0.0 | 0.00 | 0.00 | 0.00 | 86 | 1018.8 |
| 20260903035027 | 65 | 0 | 0.0 | 0.0 | 0.00 | 0.00 | 0.00 | 86 | 1018.9 |
| 20260903034552 | 65 | 0 | 0.0 | 0.0 | 0.00 | 0.00 | 0.00 | 86 | 1018.7 |
| 20260903034026 | 65 | 0 | 0.0 | 0.9 | 0.00 | 0.00 | 0.00 | 85 | 1018.4 |
| 20260903033529 | 65 | 0 | 0.0 | 0.9 | 0.00 | 0.00 | 0.00 | 85 | 1018.5 |
| 20260903033107 | 65 | 148 | 0.0 | 0.9 | 0.00 | 0.00 | 0.00 | 86 | 1018.7 |
| 20260903032532 | 65 | 0 | 0.0 | 0.9 | 0.00 | 0.00 | 0.00 | 86 | 1018.6 |
| 20260903032029 | 65 | 0 | 0.0 | 0.9 | 0.00 | 0.00 | 0.00 | 86 | 1018.5 |
| 20260903031544 | 65 | 0 | 0.0 | 0.0 | 0.00 | 0.00 | 0.00 | 86 | 1018.4 |
| 20260903031029 | 65 | 0 | 0.0 | 0.9 | 0.00 | 0.00 | 0.00 | 86 | 1018.7 |
| 20260903030530 | 65 | 0 | 0.0 | 0.9 | 0.00 | 0.00 | 0.00 | 87 | 1018.6 |
| 20260903030047 | 65 | 0 | 0.0 | 0.0 | 0.00 | 0.00 | 0.00 | 87 | 1018.8 |
| 20260903025525 | 65 | 0 | 0.0 | 0.0 | 0.00 | 0.00 | 0.00 | 86 | 1018.9 |
| 20260903025030 | 65 | 0 | 0.0 | 0.0 | 0.00 | 0.00 | 0.00 | 86 | 1018.7 |
| 20260903024545 | 65 | 0 | 0.0 | 0.0 | 0.00 | 0.00 | 0.00 | 85 | 1018.9 |
| 20260903024025 | 65 | 0 | 0.0 | 0.9 | 0.00 | 0.00 | 0.00 | 85 | 1019.2 |
| 20260903023528 | 65 | 0 | 0.0 | 0.9 | 0.00 | 0.00 | 0.00 | 84 | 1019.6 |
| 20260903023054 | 65 | 0 | 0.0 | 0.9 | 0.00 | 0.00 | 0.00 | 84 | 1019.5 |
| 20260903022529 | 65 | 0 | 0.0 | 0.0 | 0.00 | 0.00 | 0.00 | 84 | 1019.9 |
| 20260903022026 | 65 | 0 | 0.0 | 0.0 | 0.00 | 0.00 | 0.00 | 84 | 1019.9 |
| 20260903021603 | 65 | 0 | 0.0 | 0.0 | 0.00 | 0.00 | 0.00 | 83 | 1019.8 |
| 20260903021027 | 65 | 0 | 0.0 | 0.0 | 0.00 | 0.00 | 0.00 | 83 | 1019.7 |
| 20260903020528 | 65 | 0 | 0.0 | 0.0 | 0.00 | 0.00 | 0.00 | 83 | 1020.1 |
| 20260903020054 | 66 | 0 | 0.0 | 0.0 | 0.00 | 0.00 | 0.00 | 84 | 1020.0 |
| 20260903015527 | 66 | 0 | 0.0 | 0.0 | 0.00 | 0.00 | 0.00 | 83 | 1020.1 |
| 20260903015029 | 66 | 0 | 0.0 | 0.0 | 0.00 | 0.00 | 0.00 | 84 | 1020.4 |
| 20260903014551 | 66 | 0 | 0.0 | 0.0 | 0.00 | 0.00 | 0.00 | 83 | 1019.9 |
| 20260903014027 | 66 | 0 | 0.0 | 0.0 | 0.00 | 0.00 | 0.00 | 83 | 1019.8 |
| 20260903013530 | 66 | 155 | 0.0 | 0.0 | 0.00 | 0.00 | 0.00 | 84 | 1020.1 |
| 20260903013052 | 66 | 0 | 0.0 | 0.0 | 0.00 | 0.00 | 0.00 | 84 | 1020.0 |
| 20260903012528 | 66 | 0 | 0.0 | 0.0 | 0.00 | 0.00 | 0.00 | 86 | 1020.0 |
| 20260903012028 | 66 | 0 | 0.0 | 0.0 | 0.00 | 0.00 | 0.00 | 85 | 1020.0 |
| 20260903011555 | 66 | 0 | 0.0 | 0.0 | 0.00 | 0.00 | 0.00 | 85 | 1019.9 |
| 20260903011028 | 66 | 0 | 0.0 | 0.0 | 0.00 | 0.00 | 0.00 | 85 | 1019.8 |
| 20260903010527 | 66 | 0 | 0.0 | 0.0 | 0.00 | 0.00 | 0.00 | 85 | 1019.8 |
| 20260903010109 | 66 | 0 | 0.0 | 0.0 | 0.00 | 0.00 | 0.00 | 85 | 1019.8 |
| 20260903005527 | 66 | 0 | 0.0 | 0.0 | 0.00 | 0.00 | 0.00 | 85 | 1019.5 |
| 20260903005027 | 66 | 0 | 0.0 | 0.0 | 0.00 | 0.00 | 0.00 | 84 | 1019.3 |
| 20260903004557 | 66 | 0 | 0.0 | 0.0 | 0.00 | 0.00 | 0.00 | 85 | 1019.0 |
| 20260903004029 | 66 | 0 | 0.0 | 0.0 | 0.00 | 0.00 | 0.00 | 84 | 1019.2 |
| 20260903003529 | 66 | 0 | 0.0 | 0.0 | 0.00 | 0.00 | 0.00 | 84 | 1019.2 |
| 20260903003045 | 66 | 0 | 0.0 | 0.0 | 0.00 | 0.00 | 0.00 | 85 | 1019.4 |
| 20260903002529 | 66 | 0 | 0.0 | 0.0 | 0.00 | 0.00 | 0.00 | 85 | 1019.5 |
| 20260903002028 | 66 | 0 | 0.0 | 0.0 | 0.00 | 0.00 | 0.00 | 85 | 1019.5 |
| 20260903001553 | 66 | 0 | 0.0 | 0.0 | 0.00 | 0.00 | 0.00 | 86 | 1019.5 |
| 20260903001028 | 66 | 0 | 0.0 | 0.9 | 0.00 | 0.00 | 0.00 | 86 | 1019.6 |
| 20260903000528 | 65 | 0 | 0.0 | 0.9 | 0.00 | 0.00 | 0.00 | 87 | 1019.6 |
| 20260903000058 | 65 | 149 | 0.0 | 0.9 | 0.00 | 0.00 | 0.00 | 88 | 1019.7 |
| 20260902235528 | 65 | 0 | 0.0 | 1.7 | 0.00 | 0.00 | 0.00 | 89 | 1019.5 |
| 20260902235030 | 66 | 0 | 0.0 | 1.7 | 0.00 | 0.00 | 0.00 | 89 | 1019.6 |
| 20260902234550 | 66 | 0 | 0.0 | 1.7 | 0.00 | 0.00 | 0.00 | 89 | 1019.5 |
| 20260902234027 | 66 | 0 | 0.0 | 1.7 | 0.00 | 0.00 | 0.00 | 91 | 1019.5 |
| 20260902233530 | 67 | 0 | 0.0 | 0.0 | 0.00 | 0.00 | 0.00 | 92 | 1019.4 |
| 20260902233053 | 67 | 0 | 0.0 | 0.0 | 0.00 | 0.00 | 0.00 | 91 | 1019.6 |
| 20260902232526 | 67 | 0 | 0.0 | 0.0 | 0.00 | 0.00 | 0.00 | 91 | 1019.5 |
| 20260902232029 | 67 | 0 | 0.0 | 0.0 | 0.00 | 0.00 | 0.00 | 91 | 1020.0 |
| 20260902231550 | 68 | 0 | 0.0 | 0.0 | 0.00 | 0.00 | 0.00 | 91 | 1019.9 |
| 20260902231029 | 68 | 0 | 0.0 | 0.0 | 0.00 | 0.00 | 0.00 | 91 | 1020.1 |
| 20260902230528 | 68 | 0 | 0.0 | 0.0 | 0.00 | 0.00 | 0.00 | 91 | 1020.3 |
| 20260902230051 | 68 | 0 | 0.0 | 0.0 | 0.00 | 0.00 | 0.00 | 91 | 1020.5 |
| 20260902225529 | 68 | 0 | 0.0 | 0.0 | 0.00 | 0.00 | 0.00 | 91 | 1020.5 |
| 20260902225028 | 69 | 0 | 0.0 | 0.0 | 0.00 | 0.00 | 0.00 | 91 | 1020.7 |
| 20260902224552 | 69 | 0 | 0.0 | 0.0 | 0.00 | 0.00 | 0.00 | 91 | 1020.7 |
| 20260902224029 | 69 | 0 | 0.0 | 0.0 | 0.00 | 0.00 | 0.00 | 90 | 1020.6 |
| 20260902223526 | 69 | 0 | 0.0 | 0.0 | 0.00 | 0.00 | 0.00 | 90 | 1020.5 |
| 20260902223052 | 69 | 0 | 0.0 | 0.0 | 0.00 | 0.00 | 0.00 | 90 | 1020.7 |
| 20260902222530 | 69 | 0 | 0.0 | 0.0 | 0.00 | 0.00 | 0.00 | 90 | 1020.7 |
| 20260902222028 | 69 | 0 | 0.0 | 0.0 | 0.00 | 0.00 | 0.00 | 90 | 1020.7 |
| 20260902221615 | 69 | 0 | 0.0 | 0.0 | 0.00 | 0.00 | 0.00 | 89 | 1020.8 |
| 20260902221030 | 69 | 0 | 0.0 | 0.0 | 0.00 | 0.00 | 0.00 | 89 | 1020.7 |
| 20260902220528 | 69 | 0 | 0.0 | 0.0 | 0.00 | 0.00 | 0.00 | 88 | 1020.5 |
| 20260902220056 | 70 | 0 | 0.0 | 0.0 | 0.00 | 0.00 | 0.00 | 88 | 1020.5 |
| 20260902215531 | 70 | 0 | 0.0 | 0.0 | 0.00 | 0.00 | 0.00 | 87 | 1020.4 |
| 20260902215031 | 70 | 0 | 0.0 | 0.0 | 0.00 | 0.00 | 0.00 | 86 | 1020.5 |
| 20260902214550 | 70 | 0 | 0.0 | 0.0 | 0.00 | 0.00 | 0.00 | 85 | 1020.5 |
| 20260902214030 | 70 | 0 | 0.0 | 0.0 | 0.00 | 0.00 | 0.00 | 84 | 1020.5 |
| 20260902213529 | 70 | 0 | 0.0 | 0.0 | 0.00 | 0.00 | 0.00 | 84 | 1020.4 |
| 20260902213047 | 71 | 0 | 0.0 | 0.0 | 0.00 | 0.00 | 0.00 | 85 | 1020.4 |
| 20260902212530 | 70 | 0 | 0.0 | 0.0 | 0.00 | 0.00 | 0.00 | 86 | 1020.4 |
| 20260902212032 | 70 | 0 | 0.0 | 0.9 | 0.00 | 0.00 | 0.00 | 85 | 1020.4 |
| 20260902211609 | 70 | 0 | 0.0 | 0.9 | 0.00 | 0.00 | 0.00 | 84 | 1020.5 |
| 20260902211030 | 71 | 0 | 0.0 | 0.9 | 0.00 | 0.00 | 0.00 | 83 | 1020.5 |
| 20260902210532 | 71 | 0 | 0.0 | 0.9 | 0.00 | 0.00 | 0.00 | 83 | 1020.4 |
| 20260902210056 | 71 | 0 | 0.0 | 0.9 | 0.00 | 0.00 | 0.00 | 83 | 1020.4 |
| 20260902205530 | 71 | 0 | 0.0 | 0.9 | 0.00 | 0.00 | 0.00 | 83 | 1020.5 |
| 20260902205030 | 71 | 0 | 0.0 | 0.0 | 0.00 | 0.00 | 0.00 | 83 | 1020.4 |
| 20260902204553 | 71 | 0 | 0.0 | 0.0 | 0.00 | 0.00 | 0.00 | 83 | 1020.2 |
| 20260902204029 | 71 | 0 | 0.0 | 0.0 | 0.00 | 0.00 | 0.00 | 83 | 1020.2 |
| 20260902203530 | 71 | 0 | 0.0 | 0.0 | 0.00 | 0.00 | 0.00 | 84 | 1020.2 |
| 20260902203048 | 70 | 0 | 0.0 | 0.0 | 0.00 | 0.00 | 0.00 | 86 | 1020.1 |
| 20260902202531 | 70 | 0 | 0.0 | 0.0 | 0.00 | 0.00 | 0.00 | 86 | 1020.3 |
| 20260902202030 | 71 | 0 | 0.0 | 0.0 | 0.00 | 0.00 | 0.00 | 85 | 1020.3 |
| 20260902201558 | 71 | 0 | 0.0 | 0.0 | 0.00 | 0.00 | 0.00 | 86 | 1020.6 |
| 20260902201030 | 70 | 0 | 0.0 | 0.0 | 0.00 | 0.00 | 0.00 | 86 | 1020.5 |
| 20260902200532 | 70 | 0 | 0.0 | 0.0 | 0.00 | 0.00 | 0.00 | 84 | 1020.6 |
| 20260902200056 | 70 | 0 | 0.0 | 1.7 | 0.00 | 0.00 | 0.00 | 83 | 1020.7 |
| 20260902195533 | 71 | 346 | 0.0 | 1.7 | 0.00 | 0.01 | 0.00 | 80 | 1020.9 |